Temp
18 18 18 19 19 19 20 20 21 21 22 22 23 24 24 25 26 26 27 28 28 28 27 25 24 28 29 25 24 25 19 25 27 24 30 31 32 30 30 30 30 28 27 26 25
18 18 19 19 19 20 20 20 21 21 22 23 23 24 24 26 27 26 28 28 28 28 28 27 30 31 31 22 21 20 20 30 32 32 32 32 32 31 31 31 29 29 27 26 25
18 18 19 19 19 20 20 21 21 22 22 23 23 24 25 25 26 29 29 29 29 29 28 29 30 32 32 33 23 21 24 25 34 32 33 33 32 32 31 30 29 28 26 25 26
18 18 19 19 20 20 20 21 22 22 22 23 24 24 25 25 30 28 28 28 29 29 27 29 31 32 34 34 32 27 33 33 33 33 31 31 32 33 31 30 29 28 27 26 26
18 18 19 19 20 20 21 21 22 22 23 23 24 24 25 25 29 28 28 28 29 29 26 30 32 33 33 35 33 34 35 34 33 32 31 30 26 29 31 31 29 28 27 26 26
18 18 19 19 20 20 21 21 22 23 23 23 24 24 24 28 29 28 28 29 28 28 29 31 32 33 33 35 35 35 30 31 33 24 28 27 26 24 31 30 29 28 27 27 27
18 18 19 20 20 21 21 22 22 23 23 23 24 24 24 28 28 28 26 27 28 28 30 32 32 32 33 35 35 35 23 25 32 25 24 27 25 24 27 30 29 28 28 28 28
18 18 19 20 20 21 21 22 22 23 23 24 24 24 26 29 28 28 28 28 29 30 30 31 31 31 32 34 33 29 31 30 35 34 26 24 19 24 25 29 29 29 28 28 28
18 18 19 19 20 21 22 22 23 23 23 23 24 24 29 28 28 29 29 29 30 30 30 30 30 32 33 33 28 27 30 33 34 35 27 24 19 22 26 29 30 29 29 29 29
17 18 19 19 20 21 22 23 24 23 23 23 24 25 28 30 30 30 29 30 31 31 31 31 32 33 34 33 28 25 30 35 34 35 35 30 23 26 26 31 31 30 29 29 29
17 18 19 19 20 21 23 23 24 23 22 27 29 30 31 30 30 30 30 30 31 31 32 33 33 33 35 35 33 31 35 35 35 35 34 29 26 30 32 32 32 31 30 29 29
17 18 19 19 20 21 22 23 24 24 25 27 28 29 30 30 30 30 30 30 31 31 33 33 33 35 36 36 35 35 35 35 36 36 35 33 30 31 33 32 33 32 31 30 29
17 18 19 19 21 22 22 24 23 24 26 29 30 30 30 30 30 32 31 31 32 32 33 33 35 37 36 35 35 35 35 35 34 35 35 33 30 26 33 33 32 32 32 31 30
17 18 18 20 20 21 24 23 24 24 26 31 31 31 31 31 31 31 32 32 33 33 34 34 36 36 35 35 35 34 36 35 35 34 33 33 30 28 32 33 33 33 32 32 31
17 18 18 18 20 22 23 23 23 24 27 32 32 29 31 31 33 32 33 32 32 33 34 34 35 35 34 35 36 35 36 35 35 34 35 34 33 33 34 33 33 33 33 32 32
17 18 19 18 20 22 22 23 24 26 29 32 32 32 32 31 33 33 32 32 33 33 34 34 35 36 35 36 36 36 35 35 35 35 31 29 32 33 33 35 34 34 33 33 32
17 18 19 19 21 21 22 24 26 27 33 33 33 33 33 33 33 33 32 32 32 31 31 34 35 36 36 34 36 35 34 32 33 33 25 30 33 36 36 36 36 35 34 33 32
18 19 20 20 19 21 22 26 27 32 33 33 33 33 32 34 33 34 33 32 33 33 33 33 33 35 36 35 34 35 35 33 31 33 30 34 35 35 37 36 36 35 34 33 33
19 20 20 21 22 21 24 27 30 31 31 31 32 32 33 34 34 34 33 33 34 34 32 33 34 37 37 36 35 34 34 36 35 35 35 36 36 37 37 36 36 35 34 33 33
20 21 24 22 22 22 26 26 30 30 30 31 30 33 33 34 33 33 33 35 34 36 36 34 32 36 36 36 36 35 36 34 35 32 32 35 34 34 34 35 35 36 35 34 33
20 23 23 22 23 24 27 30 30 30 29 30 31 31 32 33 33 33 34 35 35 35 36 35 34 34 36 34 34 34 34 35 35 35 33 33 32 35 34 35 35 36 35 34 33
21 27 24 24 25 28 29 30 27 30 30 30 31 30 31 32 32 32 33 34 34 34 33 34 33 32 34 36 36 35 35 35 33 33 34 34 30 36 36 36 35 35 35 34 34
21 26 24 24 26 29 30 29 29 30 30 30 30 31 32 30 30 32 33 33 33 33 32 33 33 31 32 35 36 35 35 36 36 36 34 34 29 35 34 34 34 34 34 33 33
21 27 26 25 26 28 29 29 29 28 28 29 29 30 30 30 31 30 32 34 33 32 30 31 32 32 32 33 35 34 35 35 35 34 35 35 31 34 34 33 33 32 32 32 32
23 26 24 27 28 28 28 28 28 29 29 28 29 29 29 28 29 30 32 32 33 31 32 32 30 32 33 34 34 34 35 35 34 34 34 35 32 33 33 33 32 32 32 32 32
21 21 21 25 27 26 23 28 27 29 28 28 28 29 28 28 29 28 29 30 31 33 32 32 30 31 31 32 31 32 33 34 35 35 35 35 32 32 33 32 32 31 30 30 30
17 19 21 24 27 27 27 27 27 27 26 27 28 27 27 27 26 27 28 28 30 30 30 30 30 29 29 30 29 30 32 31 32 35 35 34 32 30 32 32 31 31 30 29 29
Height
1527 1525 1522 1520 1517 1515 1513 1510 1508 1506 1503 1501 1499 1497 1495 1493 1492 1491 1491 1491 1490 1488 1486 1485 1481 1481 1481 1476 1495 1484 1497 1489 1487 1494 1475 1472 1471 1477 1481 1483 1486 1489 1497 1505 1511
1527 1524 1522 1519 1516 1514 1512 1509 1506 1504 1502 1500 1498 1496 1494 1491 1490 1488 1489 1489 1489 1488 1486 1485 1480 1474 1471 1478 1484 1493 1499 1471 1459 1464 1466 1472 1471 1473 1479 1480 1487 1492 1499 1507 1512
1526 1523 1521 1518 1515 1512 1510 1508 1505 1502 1500 1498 1496 1495 1493 1491 1488 1486 1485 1487 1488 1488 1486 1484 1482 1475 1468 1465 1487 1484 1487 1474 1456 1466 1462 1466 1469 1470 1474 1478 1485 1495 1501 1507 1512
1526 1523 1520 1517 1514 1511 1508 1506 1503 1501 1498 1496 1495 1493 1492 1492 1486 1485 1485 1486 1487 1487 1487 1484 1480 1474 1469 1462 1464 1472 1463 1465 1463 1464 1469 1474 1468 1468 1476 1483 1485 1494 1502 1507 1512
1525 1522 1518 1515 1512 1509 1507 1504 1501 1499 1497 1495 1493 1492 1493 1492 1486 1483 1483 1484 1485 1486 1488 1483 1478 1472 1469 1459 1464 1461 1461 1463 1464 1471 1470 1472 1474 1472 1475 1479 1487 1495 1502 1507 1511
1524 1520 1517 1513 1510 1508 1505 1502 1500 1498 1496 1494 1492 1492 1492 1491 1484 1482 1481 1482 1484 1486 1488 1484 1480 1478 1472 1463 1459 1463 1471 1467 1463 1480 1471 1479 1492 1488 1482 1480 1489 1497 1502 1507 1510
1522 1519 1515 1512 1508 1506 1503 1500 1498 1496 1495 1493 1491 1491 1491 1488 1485 1485 1483 1483 1486 1487 1485 1483 1481 1482 1475 1465 1460 1458 1481 1477 1464 1467 1479 1481 1497 1500 1486 1484 1491 1498 1502 1507 1510
1521 1518 1514 1510 1507 1504 1501 1498 1496 1495 1494 1493 1491 1491 1487 1482 1484 1485 1485 1486 1487 1486 1486 1485 1484 1482 1478 1469 1467 1479 1472 1476 1457 1460 1477 1477 1516 1482 1484 1488 1492 1497 1501 1504 1507
1520 1516 1513 1509 1505 1502 1499 1496 1494 1493 1492 1492 1492 1491 1485 1480 1481 1483 1485 1485 1486 1486 1486 1486 1485 1481 1474 1471 1487 1489 1483 1463 1461 1456 1469 1476 1512 1483 1482 1486 1489 1495 1498 1501 1504
1518 1515 1511 1508 1504 1501 1498 1495 1492 1491 1491 1490 1490 1494 1481 1478 1478 1481 1483 1485 1484 1484 1484 1484 1482 1476 1465 1469 1516 1500 1481 1451 1458 1454 1453 1465 1480 1475 1477 1478 1483 1489 1494 1498 1501
1516 1513 1509 1506 1503 1501 1497 1494 1494 1493 1489 1484 1482 1478 1476 1479 1478 1480 1482 1484 1485 1483 1480 1477 1479 1477 1458 1454 1462 1469 1456 1453 1449 1450 1455 1471 1475 1457 1469 1473 1475 1481 1487 1495 1499
1514 1511 1508 1505 1502 1500 1498 1496 1496 1497 1487 1480 1478 1477 1476 1478 1477 1478 1481 1483 1483 1483 1476 1476 1475 1462 1455 1452 1456 1458 1458 1458 1447 1444 1449 1460 1471 1467 1466 1467 1468 1474 1480 1489 1496
1511 1509 1506 1504 1501 1500 1499 1499 1497 1496 1488 1470 1469 1471 1474 1477 1475 1471 1476 1478 1477 1478 1474 1473 1461 1452 1455 1457 1458 1456 1455 1454 1460 1449 1446 1457 1473 1469 1456 1462 1466 1468 1475 1482 1490
1509 1507 1505 1502 1502 1499 1499 1498 1497 1496 1487 1462 1465 1466 1469 1472 1470 1468 1470 1475 1474 1472 1466 1466 1458 1456 1456 1459 1456 1464 1444 1448 1453 1457 1470 1452 1489 1474 1457 1457 1461 1465 1469 1475 1482
1506 1504 1503 1501 1500 1498 1499 1498 1496 1495 1495 1459 1461 1466 1465 1469 1460 1465 1465 1471 1470 1467 1467 1467 1458 1459 1463 1458 1452 1458 1444 1452 1452 1457 1452 1450 1462 1457 1447 1455 1456 1459 1463 1469 1475
1503 1501 1501 1500 1498 1498 1498 1498 1497 1496 1487 1455 1455 1460 1463 1464 1461 1458 1465 1468 1468 1466 1461 1459 1454 1452 1453 1451 1450 1449 1452 1450 1449 1450 1484 1478 1464 1458 1452 1442 1445 1449 1457 1464 1470
1501 1499 1497 1497 1498 1499 1499 1497 1494 1490 1449 1453 1451 1452 1454 1455 1459 1457 1463 1466 1470 1479 1474 1460 1454 1450 1451 1458 1450 1451 1461 1478 1474 1465 1526 1463 1456 1441 1432 1434 1437 1442 1451 1459 1468
1498 1496 1495 1494 1495 1498 1499 1493 1495 1453 1452 1451 1454 1451 1455 1447 1452 1452 1458 1465 1460 1460 1460 1461 1464 1443 1443 1451 1456 1449 1452 1472 1490 1472 1479 1440 1453 1444 1428 1435 1441 1444 1449 1456 1463
1496 1495 1494 1494 1494 1498 1498 1488 1471 1462 1461 1462 1458 1455 1449 1443 1447 1449 1451 1452 1449 1450 1467 1462 1456 1430 1435 1439 1447 1452 1458 1442 1453 1442 1452 1439 1436 1424 1427 1434 1440 1446 1451 1456 1461
1495 1495 1495 1496 1497 1498 1493 1484 1467 1470 1469 1467 1468 1448 1451 1442 1451 1450 1448 1441 1443 1439 1440 1447 1465 1437 1436 1440 1442 1448 1441 1459 1450 1483 1486 1450 1448 1449 1440 1441 1439 1441 1447 1454 1460
1496 1493 1494 1495 1497 1495 1486 1468 1470 1469 1474 1469 1463 1459 1451 1448 1444 1447 1443 1435 1438 1441 1439 1443 1451 1451 1437 1446 1453 1448 1454 1449 1445 1445 1469 1475 1468 1433 1441 1440 1439 1440 1445 1452 1457
1497 1485 1493 1495 1494 1482 1475 1469 1478 1473 1471 1471 1467 1466 1461 1454 1452 1451 1447 1437 1438 1441 1446 1445 1450 1458 1449 1431 1431 1435 1439 1441 1462 1466 1448 1448 1477 1429 1434 1438 1440 1442 1447 1452 1457
1497 1488 1494 1495 1486 1472 1469 1474 1475 1472 1468 1468 1467 1462 1459 1463 1467 1455 1446 1442 1447 1449 1453 1447 1449 1466 1458 1439 1426 1436 1436 1433 1432 1435 1448 1456 1476 1437 1445 1449 1446 1446 1450 1455 1458
1501 1485 1489 1492 1487 1480 1473 1474 1474 1474 1475 1474 1472 1468 1467 1467 1460 1461 1453 1443 1447 1452 1456 1456 1453 1453 1460 1446 1427 1435 1434 1435 1436 1446 1443 1437 1452 1441 1444 1450 1450 1451 1454 1456 1460
1500 1491 1495 1483 1480 1480 1479 1478 1478 1474 1473 1475 1472 1470 1468 1472 1465 1460 1451 1450 1445 1449 1453 1456 1462 1451 1441 1432 1431 1430 1431 1430 1441 1438 1445 1436 1445 1443 1444 1450 1452 1454 1454 1457 1459
1509 1507 1502 1493 1487 1489 1485 1478 1479 1474 1476 1473 1473 1469 1472 1473 1467 1466 1460 1454 1454 1447 1450 1449 1459 1451 1452 1440 1445 1446 1434 1431 1428 1431 1432 1428 1441 1441 1446 1453 1454 1457 1456 1460 1462
1517 1514 1509 1496 1487 1486 1481 1481 1482 1483 1484 1480 1477 1480 1476 1474 1476 1472 1468 1464 1460 1456 1455 1456 1458 1458 1463 1448 1455 1458 1444 1442 1440 1425 1427 1440 1443 1452 1449 1451 1457 1458 1459 1461 1465
Wind_Speed
13 14 14 15 16 16 16 16 17 16 16 15 14 13 13 12 9 10 5 8 9 10 11 5 9 13 18 2 19 19 3 3 7 6 9 8 8 15 13 16 10 15 21 25 24
15 15 16 16 17 17 18 18 17 17 16 14 13 13 13 12 11 13 14 13 12 11 9 9 16 15 17 23 11 3 2 0 12 12 14 9 9 12 9 15 11 21 26 25 24
16 17 17 18 18 18 19 19 18 17 15 14 13 11 10 12 11 7 16 13 12 9 7 16 15 17 22 4 18 16 5 16 13 21 12 12 10 14 7 11 20 22 26 25 23
17 18 18 19 20 20 19 20 20 17 15 13 11 9 9 9 3 3 6 9 10 9 7 14 13 19 13 8 7 4 11 1 15 7 14 8 5 11 12 16 19 22 25 25 23
18 18 19 19 20 21 20 20 19 16 15 12 10 8 6 7 10 4 7 11 12 10 10 14 15 15 11 8 5 8 2 5 6 13 3 12 24 15 16 17 18 21 24 23 22
18 18 20 20 20 21 20 20 17 15 13 10 8 6 5 12 3 8 5 13 12 11 9 12 13 13 15 17 4 5 30 32 11 13 21 14 17 19 9 20 19 22 23 21 20
18 18 19 20 20 20 19 19 16 13 10 9 7 5 8 14 1 3 8 12 12 12 13 9 11 14 20 19 6 12 24 21 7 17 4 21 7 5 17 15 19 21 21 19 19
18 19 19 20 21 20 19 17 15 12 9 7 4 5 8 5 7 7 9 11 11 13 13 11 13 16 17 20 17 22 5 11 9 14 9 28 9 24 22 7 18 21 21 20 22
18 19 19 20 20 19 18 16 14 11 8 4 1 4 15 7 9 12 13 13 12 12 12 12 13 17 21 5 15 7 12 13 7 5 14 12 6 30 24 20 20 22 21 20 20
19 18 19 19 19 18 15 15 11 10 7 7 9 9 15 9 9 13 14 13 14 13 15 15 16 14 16 7 1 12 15 4 7 5 1 14 17 13 29 21 22 22 23 20 20
19 18 18 19 17 15 11 11 7 1 5 15 4 12 2 5 4 13 15 13 10 14 14 17 12 14 19 1 24 23 14 10 8 4 5 8 21 6 20 18 22 22 25 24 21
19 18 18 17 15 9 7 10 5 8 12 18 21 20 11 6 7 14 17 18 16 15 16 14 16 15 16 17 7 12 13 4 5 6 2 11 12 13 11 18 20 20 24 25 23
19 18 17 14 9 4 7 8 7 10 9 17 16 19 17 15 14 14 20 20 16 15 17 17 18 16 10 14 8 14 14 10 7 10 5 6 3 10 10 18 18 22 21 25 25
19 17 16 12 5 6 4 4 8 8 6 11 11 9 10 13 15 20 21 20 15 18 17 15 19 16 13 10 10 14 10 10 9 11 10 10 5 11 14 14 17 19 23 24 28
18 16 12 13 8 3 5 8 9 5 5 8 11 9 9 14 8 17 17 19 19 16 12 15 16 14 13 18 12 15 12 10 14 14 18 13 8 9 8 12 16 18 22 24 25
16 15 10 8 7 5 10 9 7 6 5 7 7 9 12 16 16 14 15 15 18 18 17 16 22 9 11 12 15 15 15 14 16 15 2 21 18 7 6 9 18 19 21 23 23
13 13 11 8 5 3 6 7 6 7 2 7 5 9 13 12 15 11 12 15 15 12 16 18 19 16 12 13 15 15 15 11 13 13 1 22 16 9 11 10 4 15 17 22 22
11 10 5 6 6 6 5 7 7 1 7 6 3 8 9 10 12 17 14 13 18 20 16 14 13 22 17 15 15 13 16 11 17 15 8 23 5 7 10 15 7 5 16 15 24
6 3 3 2 4 4 9 9 5 11 10 10 13 12 12 9 8 14 15 15 16 19 16 16 15 4 1 9 11 14 12 17 17 17 13 2 9 12 16 14 10 14 11 13 19
1 7 3 5 6 4 8 12 5 8 7 11 14 7 11 10 9 11 10 11 15 14 16 13 15 14 4 9 8 13 15 13 9 10 9 5 5 11 14 11 8 10 12 13 15
3 7 3 5 5 8 9 6 5 2 6 8 12 8 12 12 1 11 8 8 6 10 13 9 12 17 10 8 12 13 14 14 16 12 8 9 4 13 11 6 10 10 11 12 13
9 1 4 8 9 13 11 6 4 10 3 6 4 10 12 14 8 10 14 8 10 2 6 8 13 12 18 12 15 13 16 16 12 15 12 9 5 12 11 8 11 13 14 12 9
9 5 4 7 6 8 4 7 1 10 7 5 6 4 10 9 7 11 16 10 6 3 11 10 8 10 15 14 16 8 11 13 14 14 16 12 7 12 10 7 12 11 10 7 6
8 3 7 9 14 12 7 8 6 7 8 6 10 12 8 12 12 13 16 7 5 7 8 10 14 18 11 13 12 16 17 13 18 11 14 16 16 13 11 9 12 12 7 3 4
5 7 6 4 1 9 11 10 8 6 4 5 7 5 10 10 12 15 16 14 13 10 9 9 16 18 18 18 18 12 14 12 13 17 16 4 16 14 13 10 13 13 12 7 3
9 8 15 14 9 6 5 9 6 9 4 11 4 10 10 12 12 17 12 12 16 2 6 9 15 16 19 16 17 18 17 16 16 15 15 18 15 8 18 12 12 14 15 12 8
14 9 9 11 9 2 6 11 9 11 10 13 9 7 14 13 17 21 21 22 19 15 13 8 13 17 15 9 15 13 12 17 27 16 15 16 19 24 12 14 11 14 15 14 11
Wind_Direction
348 345 343 340 337 335 334 332 328 326 322 321 318 314 310 301 289 286 275 241 221 275 285 254 253 255 233 131 36 40 50 178 167 179 122 146 101 119 104 145 125 105 146 148 148
345 342 339 337 335 334 333 331 329 327 323 319 318 316 312 305 289 261 245 243 249 267 275 243 273 284 279 137 189 157 229 266 165 164 127 125 109 136 128 123 111 124 132 146 154
341 338 336 334 332 332 332 331 329 327 323 319 317 317 312 306 308 233 216 236 239 249 243 276 300 293 301 298 143 177 230 15 73 67 91 120 132 141 142 133 132 133 144 153 158
337 334 332 331 329 330 331 331 330 328 323 318 314 315 306 305 328 164 247 230 214 227 242 282 273 273 300 217 95 114 238 174 96 70 94 144 130 118 117 149 133 147 155 158 163
336 332 329 328 327 328 330 331 332 330 323 316 311 313 301 265 265 272 273 220 203 214 235 267 295 326 295 4 87 266 125 220 102 37 57 259 71 286 104 117 129 148 158 164 168
334 331 327 326 325 326 329 330 332 332 327 323 313 306 283 255 334 306 256 194 196 202 239 261 286 328 296 295 322 349 31 349 119 128 327 19 6 36 99 119 134 153 163 168 172
334 331 327 323 323 323 325 328 329 331 328 330 314 298 262 247 232 245 192 182 194 214 246 265 295 306 310 308 340 306 103 244 232 131 157 105 308 262 288 122 146 161 167 169 175
331 330 327 323 322 320 322 323 323 321 323 332 327 294 254 183 230 214 195 197 211 233 254 284 297 298 280 284 2 4 256 197 107 112 118 94 313 296 286 218 159 168 171 174 182
326 327 326 323 322 319 322 318 314 302 298 300 291 282 264 235 220 207 201 204 216 239 250 266 282 286 291 309 28 324 291 289 118 121 162 97 259 256 242 226 171 173 181 182 183
323 323 325 324 322 319 326 319 305 295 288 256 247 265 243 255 208 198 201 210 223 241 246 247 258 262 254 219 236 242 250 5 98 73 245 151 190 215 210 190 173 178 179 190 188
322 321 324 323 321 324 343 335 311 176 249 245 289 251 141 219 161 203 201 209 226 254 245 244 240 247 267 115 195 216 283 304 62 104 326 226 44 210 166 192 174 176 179 186 197
320 320 323 325 321 324 324 332 14 324 298 262 250 251 265 222 239 216 204 212 218 238 240 252 242 250 284 300 344 302 290 316 304 21 343 14 140 206 189 194 187 183 177 182 196
316 317 323 328 327 353 326 306 311 330 276 291 223 225 226 231 246 220 203 209 225 225 247 245 259 248 227 268 271 253 264 20 343 310 320 344 83 257 232 191 208 186 185 183 189
312 315 323 330 329 292 302 312 322 320 278 198 189 217 193 212 238 234 201 210 229 253 228 250 260 269 280 276 290 279 359 350 303 291 284 171 176 236 217 182 195 210 186 188 186
309 311 319 317 290 294 311 320 315 294 276 154 128 144 214 200 95 199 208 206 237 227 248 262 243 262 270 272 263 262 322 330 291 283 272 175 245 154 140 191 193 202 202 197 187
310 306 310 314 292 268 299 310 299 234 247 134 139 190 199 216 253 159 204 216 227 248 268 257 277 283 283 285 266 275 300 284 271 257 61 309 302 153 169 156 186 187 198 196 190
309 299 297 256 168 258 300 286 231 252 113 148 193 168 201 190 220 179 198 208 222 223 238 251 246 251 234 259 262 237 249 273 273 233 257 244 257 103 83 63 40 160 170 191 186
308 302 284 229 231 280 289 247 256 343 357 52 291 273 264 235 186 207 216 225 219 252 271 245 238 208 216 221 266 262 233 256 296 310 193 226 136 104 95 101 87 108 151 189 184
322 35 204 359 189 217 249 233 289 15 15 355 318 260 244 244 252 210 216 229 228 210 245 277 277 268 327 192 229 260 226 245 278 302 299 6 24 124 105 104 121 114 130 165 186
209 220 139 211 192 192 244 259 332 3 325 299 285 320 282 194 182 250 227 229 248 237 234 246 271 278 155 234 238 273 275 269 227 259 278 256 350 113 98 114 120 138 148 160 186
224 228 165 168 173 233 254 334 352 358 342 293 312 319 313 318 8 251 226 237 137 282 252 267 268 269 267 181 249 227 239 257 279 280 285 295 84 111 113 119 121 108 135 140 169
296 299 154 172 227 223 259 22 22 274 284 263 292 286 296 320 300 281 296 327 71 319 309 230 266 261 251 245 237 235 253 216 240 252 275 306 162 114 116 118 114 94 73 98 133
293 72 179 202 265 282 118 283 229 303 311 310 288 282 311 305 302 287 289 100 64 278 15 312 244 249 264 270 233 212 259 273 262 247 269 269 82 87 106 95 76 93 99 116 102
293 205 156 224 273 292 352 270 307 138 279 315 305 309 304 274 268 277 290 282 185 259 35 305 279 292 278 252 302 217 204 231 265 268 250 255 155 155 117 111 110 107 104 95 156
288 28 351 297 31 340 343 326 304 298 153 295 284 248 291 313 302 279 254 258 277 188 225 254 264 274 282 288 313 312 279 219 223 259 264 39 114 116 117 111 90 94 87 79 166
354 352 340 295 300 281 253 295 312 314 6 294 273 330 352 291 316 325 353 306 319 307 249 275 269 273 288 328 347 314 308 270 282 229 268 277 132 95 125 100 102 90 85 73 42
3 343 292 296 298 278 2 344 336 351 300 266 312 306 288 7 334 314 305 296 296 304 287 270 289 299 294 4 328 292 338 343 324 270 242 246 113 150 125 97 75 92 88 71 48